Location: Unspecified
(0.0000°N, 0.0000°E)
Time: 06:45:17
(UTC+00:00)

Courier 1B - Visible Passes

Search period start: 30 March 2017 00:00
Search period end: 09 April 2017 00:00
Orbit: 963 x 1209 km, 28.3° (Epoch: 28 March)

Date Brightness Start Highest point End Pass type
(mag) Time Alt. Az. Time Alt. Az. Time Alt. Az.
30 Mar 9.4 05:03:02 10° SSW 05:08:46 24° SSE 05:14:13 10° ESE visible
30 Mar 7.9 18:28:04 10° NW 18:35:10 69° NNE 18:42:46 10° ESE visible
30 Mar 8.8 20:22:49 10° W 20:29:37 38° SSW 20:29:52 38° SSW visible
31 Mar 9.7 04:10:53 13° S 04:14:40 19° SSE 04:19:26 10° ESE visible
31 Mar 8.4 19:28:35 10° WNW 19:35:37 51° SSW 19:39:49 26° SSE visible
31 Mar 10.3 21:25:53 10° WSW 21:26:44 12° SW 21:26:44 12° SW visible
01 Apr 9.9 03:20:49 14° SSE 03:20:49 14° SSE 03:24:12 10° SE visible
01 Apr 8.7 05:08:34 10° SW 05:15:31 42° SSE 05:22:02 10° E visible
01 Apr 8.1 18:34:36 10° WNW 18:41:40 69° SSW 18:49:13 10° SE visible
01 Apr 9.5 20:30:49 10° WSW 20:36:24 22° SSW 20:36:41 22° SSW visible
02 Apr 9.0 04:17:42 21° SSW 04:21:32 32° SSE 04:27:46 10° E visible
02 Apr 9.2 19:36:08 10° W 19:42:17 29° SSW 19:46:34 18° SSE visible
03 Apr 9.4 03:27:41 24° SSE 03:27:41 24° SSE 03:33:12 10° ESE visible
03 Apr 7.9 05:14:36 10° SW 05:22:05 76° SSE 05:29:05 10° ENE visible
03 Apr 8.8 18:41:46 10° W 18:48:16 39° SSW 18:55:09 10° SE visible
03 Apr 10.0 20:40:05 10° SW 20:43:20 13° SSW 20:43:20 13° SSW visible
04 Apr 10.3 02:37:39 12° ESE 02:37:39 12° ESE 02:38:17 10° ESE visible
04 Apr 8.2 04:24:34 31° SW 04:28:10 56° SSE 04:35:11 10° ENE visible
04 Apr 9.8 19:44:40 10° WSW 19:49:11 17° SSW 19:53:08 12° SSE visible
05 Apr 8.6 03:34:33 41° SE 03:34:33 41° SE 03:41:03 10° E visible
05 Apr 7.9 05:21:28 11° WSW 05:28:34 62° NNW 05:35:32 10° NE visible
05 Apr 9.5 18:49:44 10° WSW 18:55:02 22° SSW 19:00:35 10° SSE visible
06 Apr 9.9 02:44:30 18° ESE 02:44:30 18° ESE 02:46:38 10° E visible
06 Apr 7.7 04:31:25 38° WSW 04:34:41 84° NNW 04:41:56 10° ENE visible
07 Apr 8.0 03:41:20 69° ESE 03:41:20 69° ESE 03:48:07 10° ENE visible
07 Apr 8.6 05:28:21 10° W 05:35:05 35° NNW 05:41:28 10° NE visible
07 Apr 9.9 18:59:03 10° SW 19:02:05 13° SSW 19:05:12 10° S visible
08 Apr 9.6 02:51:11 25° E 02:51:11 25° E 02:54:06 10° ENE visible
08 Apr 8.2 04:38:07 33° W 04:41:09 48° NNW 04:48:08 10° NE visible
